Liverpool, United Kingdom

2:14 PM BST on September 26, 2016 (GMT +0100)
Liverpool

Weather History for EGGP - October, 2012

Change the Weather History Date:

Thursday, October 18, 2012

  Actual Average Record
Temperature  
Mean Temperature 54 °F -  
Max Temperature 57 °F 55 °F 68 °F (2014)
Min Temperature 50 °F 45 °F 33 °F (1998)
Degree Days  
Heating Degree Days 12    
Growing Degree Days 4 (Base 50)    
Moisture  
Dew Point 49 °F    
Average Humidity 89    
Maximum Humidity 100    
Minimum Humidity 82    
Precipitation  
Precipitation 0.00 in - - ()
Sea Level Pressure  
Sea Level Pressure 29.46 in    
Wind  
Wind Speed 10 mph ()    
Max Wind Speed 17 mph    
Max Gust Speed -    
Visibility 6.1 miles    
Events Rain    
Averages and records for this station are not official NWS values.
T = Trace of Precipitation, MM = Missing Value Source: Averaged Metar Reports

Daily Weather History Graph

Daily Weather History Graph

Search for Another Location

Airport or City:

Trip Planner

Search our weather history database for the weather conditions in past years. The results will help you decide how hot, cold, wet, or windy it might be!

Date:

Astronomy

Oct. 18, 2012 Rise Set
Actual Time 7:44 AM BST 6:07 PM BST
Civil Twilight 7:08 AM BST 6:43 PM BST
Nautical Twilight 6:28 AM BST 7:23 PM BST
Astronomical Twilight 5:48 AM BST 8:03 PM BST
Moon 11:41 AM BST (10/18) 7:56 PM BST (10/18)
Length of Visible Light 11h 34m
Length of Day
10h 23m
Waxing Crescent, 12% of the Moon is Illuminated
Oct 18
Waxing Crescent
Oct 22
First Quarter
Oct 29
Full
Nov 7
Last Quarter
Nov 13
New

Hourly Weather History & Observations

Time (BST) Temp. Dew Point Humidity Pressure Visibility Wind Dir Wind Speed Gust Speed Precip Events Conditions
12:20 AM 51.8 °F 48.2 °F 88% 29.33 in - SE 13.8 mph - N/A   Clear
12:50 AM 50.0 °F 48.2 °F 94% 29.36 in - SE 10.4 mph - N/A   Clear
2:20 AM 51.8 °F 48.2 °F 88% 29.36 in - SE 13.8 mph - N/A   Clear
2:50 AM 51.8 °F 48.2 °F 88% 29.36 in 6.2 mi SE 11.5 mph - N/A   Partly Cloudy
3:20 AM 51.8 °F 48.2 °F 88% 29.36 in 6.2 mi SSE 10.4 mph - N/A   Partly Cloudy
3:50 AM 50.0 °F 48.2 °F 94% 29.36 in 6.2 mi ESE 9.2 mph - N/A   Partly Cloudy
4:20 AM 50.0 °F 48.2 °F 94% 29.36 in 6.2 mi SE 10.4 mph - N/A   Partly Cloudy
4:50 AM 50.0 °F 48.2 °F 94% 29.36 in 6.2 mi SE 11.5 mph - N/A   Partly Cloudy
5:20 AM 50.0 °F 48.2 °F 94% 29.36 in - SE 12.7 mph - N/A   Clear
5:50 AM 50.0 °F 48.2 °F 94% 29.36 in - ESE 12.7 mph - N/A   Clear
6:20 AM 51.8 °F 48.2 °F 88% 29.36 in - SE 13.8 mph - N/A   Clear
6:50 AM 50.0 °F 48.2 °F 94% 29.36 in - SE 11.5 mph - N/A   Clear
7:20 AM 51.8 °F 48.2 °F 88% 29.36 in 6.2 mi SE 11.5 mph - N/A   Partly Cloudy
7:50 AM 51.8 °F 48.2 °F 88% 29.39 in 6.2 mi SE 15.0 mph - N/A   Scattered Clouds
8:20 AM 51.8 °F 48.2 °F 88% 29.39 in 6.2 mi SE 17.3 mph - N/A   Scattered Clouds
8:50 AM 51.8 °F 48.2 °F 88% 29.39 in 6.2 mi SSE 13.8 mph - N/A   Partly Cloudy
9:20 AM 51.8 °F 48.2 °F 88% 29.42 in 6.2 mi SSE 16.1 mph - N/A Rain Light Rain Showers
9:50 AM 53.6 °F 50.0 °F 88% 29.42 in 6.2 mi SSE 15.0 mph - N/A   Scattered Clouds
10:20 AM 53.6 °F 50.0 °F 88% 29.42 in 6.2 mi SSE 13.8 mph - N/A   Scattered Clouds
10:50 AM 55.4 °F 50.0 °F 82% 29.44 in 6.2 mi SSE 13.8 mph - N/A   Partly Cloudy
11:20 AM 53.6 °F 50.0 °F 88% 29.44 in 6.2 mi SSE 15.0 mph - N/A   Scattered Clouds
11:50 AM 53.6 °F 50.0 °F 88% 29.44 in 6.2 mi SSE 9.2 mph - N/A Rain Light Rain Showers
12:20 PM 53.6 °F 50.0 °F 88% 29.47 in 2.8 mi South 8.1 mph - N/A Rain Light Rain Showers
12:50 PM 55.4 °F 50.0 °F 82% 29.47 in 5.6 mi SE 6.9 mph - N/A   Scattered Clouds
1:20 PM 55.4 °F 50.0 °F 82% 29.44 in 6.2 mi SSE 11.5 mph - N/A   Scattered Clouds
1:50 PM 55.4 °F 50.0 °F 82% 29.47 in 6.2 mi SSE 13.8 mph - N/A   Scattered Clouds
2:20 PM 55.4 °F 50.0 °F 82% 29.47 in 6.2 mi SE 11.5 mph - N/A   Scattered Clouds
2:50 PM 55.4 °F 50.0 °F 82% 29.47 in 6.2 mi South 13.8 mph - N/A   Partly Cloudy
3:20 PM 55.4 °F 50.0 °F 82% 29.47 in 6.2 mi SSE 6.9 mph - N/A   Scattered Clouds
3:50 PM 55.4 °F 51.8 °F 88% 29.47 in 6.2 mi SSE 5.8 mph - N/A   Scattered Clouds
4:20 PM 55.4 °F 50.0 °F 82% 29.50 in 6.2 mi South 5.8 mph - N/A   Scattered Clouds
4:50 PM 55.4 °F 51.8 °F 88% 29.50 in 6.2 mi East 5.8 mph - N/A   Scattered Clouds
5:20 PM 57.2 °F 51.8 °F 82% 29.50 in 6.2 mi ESE 8.1 mph - N/A Rain Light Rain Showers
5:50 PM 55.4 °F 51.8 °F 88% 29.53 in 6.2 mi SSE 12.7 mph - N/A Rain Light Rain Showers
6:20 PM 53.6 °F 51.8 °F 94% 29.53 in 6.2 mi SSE 11.5 mph - N/A   Scattered Clouds
6:50 PM 53.6 °F 50.0 °F 88% 29.56 in 6.2 mi SSE 9.2 mph - N/A   Partly Cloudy
7:20 PM 51.8 °F 50.0 °F 94% 29.56 in 6.2 mi ESE 4.6 mph - N/A   Partly Cloudy
7:50 PM 50.0 °F 50.0 °F 100% 29.56 in 6.2 mi SE 4.6 mph - N/A   Partly Cloudy
8:20 PM 51.8 °F 48.2 °F 88% 29.56 in 6.2 mi SE 4.6 mph - N/A   Partly Cloudy
8:50 PM 50.0 °F 48.2 °F 94% 29.59 in - SSE 3.5 mph - N/A   Clear
9:20 PM 50.0 °F 48.2 °F 94% 29.59 in - Variable 2.3 mph - N/A   Clear
9:50 PM 50.0 °F 48.2 °F 94% 29.59 in - South 5.8 mph - N/A   Clear
10:20 PM 50.0 °F 48.2 °F 94% 29.62 in - SSW 5.8 mph - N/A   Clear
10:50 PM 50.0 °F 48.2 °F 94% 29.62 in - SSE 4.6 mph - N/A   Clear
11:20 PM 50.0 °F 48.2 °F 94% 29.62 in - South 8.1 mph - N/A   Clear
11:50 PM 50.0 °F 46.4 °F 87% 29.65 in - SSE 6.9 mph - N/A   Clear